Flag for Saudi Arabia Weather past 2 weeks in Haql, Saudi Arabia

Now
61 °F

Clear.


Feels Like: 61 °F
Forecast: 48 / 62 °F
Wind: 14 mph from Northeast

Location: Eilat

Current Time: Jan 29, 2015 at 8:03:21 AM

Latest Report: Jan 29, 2015 at 6:50 AM


Visibility: 10 mi

Pressure: 29.95 "Hg

Humidity: 68%

Dew point: 50 °F

Location of HaqlLocation

Historic Weather in Haql — Graph

°F

Haql temperature yesterday

Maximum temperature yesterday: 79 °F (at 1:50 PM)
Minimum temperature yesterday: 64 °F (at 6:50 AM)
Average temperature yesterday: 72 °F

Past Weeks' High & Low Weather Summary

 TemperatureHumidityPressure
High86 °F (Jan 25, 3:50 PM)93% (Jan 15, 6:50 AM)30.36 "Hg (Jan 15, 6:50 AM)
Low45 °F (Jan 14, 7:50 AM)14% (Jan 22, 3:50 PM)29.89 "Hg (Jan 28, 6:50 AM)
Average66 °F50%30.11 "Hg
* Reported Jan 14 6:50 AM — Jan 29 6:50 AM, Haql, Weather by CustomWeather, © 2014

Note: Actual official high and low records may vary slightly from our data, if they occured in-between our weather recording intervals... More about our weather records

Advertising

Haql weather history for previous 24 hours

 ConditionsComfort  
Time TempWeatherWind HumidityBarometerVisibility
6:50 AM
Jan 29
61 °FClear.14 mph68%29.95 "Hg10 mi
10:50 PM
Jan 28
68 °FClear.16 mph46%29.98 "Hg10 mi
9:50 PM70 °FClear.17 mph40%29.98 "Hg10 mi
8:50 PM72 °FClear.9 mph36%29.98 "Hg10 mi
7:50 PM72 °FClear.10 mph36%29.98 "Hg10 mi
6:50 PM73 °FClear.10 mph33%29.95 "Hg10 mi
5:50 PM75 °FSunny.12 mph29%29.92 "Hg10 mi
4:50 PM77 °FSunny.14 mph30%29.92 "Hg10 mi
3:50 PM75 °FSunny.15 mph31%29.92 "Hg10 mi
2:50 PM77 °FSunny.13 mph28%29.92 "Hg10 mi
1:50 PM79 °FSunny.13 mph23%29.92 "Hg10 mi
12:50 PM77 °FSunny.14 mph30%29.95 "Hg10 mi
11:50 AM77 °FSunny.9 mph32%29.95 "Hg10 mi
10:50 AM73 °FPartly sunny.1 mph50%29.95 "HgN/A
10:20 AM70 °FPartly sunny.5 mph50%29.95 "HgN/A
9:50 AM68 °FBroken clouds.6 mph49%29.95 "HgN/A
8:50 AM66 °FBroken clouds.3 mph46%29.92 "HgN/A
Weather by CustomWeather, © 2014

See weather overviewHow to use our weather pages